Weather History for KLGU - October, 2012

Change the Weather History Date:

Sunday, October 21, 2012

  Actual Average Record
Temperature  
Mean Temperature 54 °F -  
Max Temperature 62 °F 62 °F - (-1)
Min Temperature 45 °F 31 °F - (-1)
Degree Days  
Heating Degree Days 12    
Growing Degree Days 4 (Base 50)    
Moisture  
Dew Point 36 °F    
Average Humidity 54    
Maximum Humidity 76    
Minimum Humidity 29    
Precipitation  
Precipitation 0.00 in - - ()
Sea Level Pressure  
Sea Level Pressure 29.72 in    
Wind  
Wind Speed 3 mph (SSE)    
Max Wind Speed 7 mph    
Max Gust Speed -    
Visibility 10 miles    
Events Rain    
Averages and records for this station are not official NWS values.
T = Trace of Precipitation, MM = Missing Value Source: NWS Daily Summary

Daily Weather History Graph

Daily Weather History Graph

Search for Another Location

Airport or City:

Trip Planner

Search our weather history database for the weather conditions in past years. The results will help you decide how hot, cold, wet, or windy it might be!

Date:

Astronomy

Oct. 21, 2012 Rise Set
Actual Time 7:47 AM MDT 6:35 PM MDT
Civil Twilight 7:18 AM MDT 7:04 PM MDT
Nautical Twilight 6:46 AM MDT 7:36 PM MDT
Astronomical Twilight 6:14 AM MDT 8:08 PM MDT
Moon 2:12 PM MDT (10/21) No Moon Set
Length of Visible Light 11h 45m
Length of Day
10h 48m
Waxing Crescent, 46% of the Moon is Illuminated
Oct 21
Waxing Crescent
Oct 21
First Quarter
Oct 29
Full
Nov 6
Last Quarter
Nov 13
New

Hourly Weather History & Observations

Time (MDT) Temp. Windchill Dew Point Humidity Pressure Visibility Wind Dir Wind Speed Gust Speed Precip Events Conditions
12:51 AM 50.0 °F - 37.9 °F 63% 29.68 in 10.0 mi SE 3.5 mph - N/A   Partly Cloudy
1:51 AM 48.9 °F - 39.0 °F 69% 29.69 in 10.0 mi North 4.6 mph - N/A   Overcast
2:51 AM 48.0 °F - 39.0 °F 71% 29.69 in 10.0 mi WSW 4.6 mph - N/A   Overcast
4:51 AM 48.0 °F - 37.9 °F 68% 29.69 in 10.0 mi SE 5.8 mph - N/A   Mostly Cloudy
5:51 AM 46.9 °F - 37.9 °F 71% 29.70 in 10.0 mi Calm Calm - N/A   Overcast
7:51 AM 45.0 °F - 37.9 °F 76% 29.74 in 10.0 mi Calm Calm - N/A   Overcast
8:51 AM 48.0 °F - 37.9 °F 68% 29.77 in 10.0 mi North 4.6 mph - N/A   Overcast
9:51 AM 52.0 °F - 37.9 °F 59% 29.76 in 10.0 mi Calm Calm - N/A   Overcast
10:51 AM 53.1 °F - 37.9 °F 57% 29.76 in 10.0 mi WSW 4.6 mph - N/A   Overcast
11:51 AM 55.0 °F - 33.1 °F 43% 29.75 in 10.0 mi Calm Calm - N/A   Scattered Clouds
12:51 PM 57.9 °F - 35.1 °F 42% 29.74 in 10.0 mi Calm Calm - N/A   Partly Cloudy
1:51 PM 60.1 °F - 35.1 °F 39% 29.72 in 10.0 mi Calm Calm - N/A   Partly Cloudy
2:51 PM 61.0 °F - 36.0 °F 39% 29.70 in 10.0 mi Variable 4.6 mph - N/A   Clear
3:51 PM 62.1 °F - 34.0 °F 35% 29.70 in 10.0 mi South 6.9 mph - N/A   Mostly Cloudy
5:51 PM 60.1 °F - 32.0 °F 35% 29.71 in 10.0 mi SSE 4.6 mph - N/A   Overcast
6:51 PM 59.0 °F - 27.0 °F 29% 29.69 in 10.0 mi SE 4.6 mph - N/A   Overcast
7:51 PM 53.1 °F - 34.0 °F 48% 29.70 in 10.0 mi East 3.5 mph - N/A   Clear
9:51 PM 48.0 °F - 30.9 °F 52% 29.71 in 10.0 mi Calm Calm - N/A   Clear
11:51 PM 46.0 °F 44.8 °F 34.0 °F 63% 29.70 in 10.0 mi SSW 3.5 mph - 0.00 in Rain Light Rain